| time (UTC) | temp F | wind direction | speed knots | gust knots | rain 1hr in | rain 24hr in | rain mn in | humidity % | barometer mb |
| 20260506015631 | 64 | 263 | 3.5 | 8.7 | 0.00 | 0.02 | 0.02 | 76 | 1023.1 |
| 20260506015136 | 64 | 263 | 3.5 | 10.4 | 0.00 | 0.02 | 0.02 | 77 | 1023.1 |
| 20260506014617 | 63 | 263 | 3.5 | 10.4 | 0.00 | 0.02 | 0.02 | 76 | 1023.1 |
| 20260506014118 | 64 | 263 | 3.5 | 10.4 | 0.00 | 0.02 | 0.02 | 76 | 1023.2 |
| 20260506013626 | 64 | 263 | 3.5 | 10.4 | 0.00 | 0.02 | 0.02 | 77 | 1023.2 |
| 20260506013131 | 63 | 263 | 2.6 | 10.4 | 0.00 | 0.02 | 0.02 | 77 | 1023.2 |
| 20260506012637 | 63 | 263 | 3.5 | 10.4 | 0.00 | 0.02 | 0.02 | 77 | 1023.2 |
| 20260506012131 | 63 | 263 | 3.5 | 10.4 | 0.00 | 0.02 | 0.02 | 77 | 1023.2 |
| 20260506011625 | 63 | 263 | 2.6 | 10.4 | 0.00 | 0.02 | 0.02 | 78 | 1023.2 |
| 20260506011106 | 63 | 263 | 3.5 | 10.4 | 0.00 | 0.02 | 0.02 | 78 | 1023.2 |
| 20260506010549 | 63 | 263 | 4.3 | 10.4 | 0.00 | 0.02 | 0.02 | 77 | 1023.2 |
| 20260506010036 | 63 | 263 | 3.5 | 7.8 | 0.00 | 0.02 | 0.02 | 78 | 1023.2 |
| 20260506005517 | 63 | 263 | 1.7 | 7.8 | 0.00 | 0.02 | 0.02 | 79 | 1023.2 |
| 20260506003802 | 62 | 263 | 2.6 | 7.0 | 0.00 | 0.02 | 0.02 | 83 | 1023.3 |
| 20260506003245 | 61 | 263 | 3.5 | 9.6 | 0.00 | 0.02 | 0.02 | 85 | 1023.3 |
| 20260506002734 | 61 | 263 | 3.5 | 9.6 | 0.00 | 0.02 | 0.02 | 86 | 1023.3 |
| 20260506002215 | 60 | 263 | 2.6 | 9.6 | 0.00 | 0.02 | 0.02 | 87 | 1023.3 |
| 20260506001708 | 60 | 263 | 0.9 | 9.6 | 0.00 | 0.02 | 0.02 | 88 | 1023.3 |
| 20260506001204 | 60 | 263 | 1.7 | 5.2 | 0.00 | 0.02 | 0.02 | 88 | 1023.3 |
| 20260506000656 | 60 | 263 | 1.7 | 7.8 | 0.00 | 0.02 | 0.02 | 89 | 1023.3 |
| 20260506000152 | 60 | 263 | 1.7 | 7.8 | 0.00 | 0.02 | 0.02 | 89 | 1023.3 |
| 20260505235654 | 59 | 263 | 2.6 | 7.8 | 0.00 | 0.02 | 0.02 | 89 | 1023.3 |
| 20260505235200 | 59 | 263 | 1.7 | 7.8 | 0.00 | 0.02 | 0.02 | 89 | 1023.3 |
| 20260505234050 | 59 | 263 | 0.0 | 1.7 | 0.00 | 0.02 | 0.02 | 90 | 1023.3 |
| 20260505233534 | 59 | 263 | 0.0 | 0.0 | 0.00 | 0.02 | 0.02 | 90 | 1023.3 |
| 20260505231801 | 58 | 263 | 0.0 | 2.6 | 0.00 | 0.02 | 0.02 | 90 | 1023.3 |
| 20260505231242 | 58 | 263 | 0.0 | 0.0 | 0.00 | 0.02 | 0.02 | 90 | 1023.3 |
| 20260505230723 | 58 | 263 | 0.0 | 0.0 | 0.00 | 0.02 | 0.02 | 89 | 1023.3 |
| 20260505230205 | 58 | 263 | 0.0 | 2.6 | 0.00 | 0.02 | 0.02 | 90 | 1023.3 |
| 20260505225653 | 57 | 263 | 0.0 | 0.0 | 0.00 | 0.02 | 0.02 | 89 | 1023.2 |
| 20260505225152 | 57 | 263 | 0.9 | 2.6 | 0.00 | 0.02 | 0.02 | 89 | 1023.2 |
| 20260505224634 | 57 | 263 | 0.9 | 2.6 | 0.00 | 0.02 | 0.02 | 89 | 1023.2 |
| 20260505224120 | 57 | 263 | 0.9 | 4.3 | 0.00 | 0.02 | 0.02 | 89 | 1023.1 |
| 20260505222939 | 57 | 263 | 0.9 | 4.3 | 0.00 | 0.02 | 0.02 | 88 | 1023.1 |
| 20260505222436 | 57 | 263 | 0.9 | 2.6 | 0.00 | 0.02 | 0.02 | 88 | 1023.0 |
| 20260505221938 | 57 | 263 | 0.9 | 2.6 | 0.00 | 0.02 | 0.02 | 88 | 1023.0 |
| 20260505221426 | 57 | 263 | 0.9 | 2.6 | 0.00 | 0.02 | 0.02 | 88 | 1023.0 |
| 20260505220907 | 57 | 263 | 0.0 | 2.6 | 0.00 | 0.02 | 0.02 | 87 | 1022.9 |
| 20260505220413 | 57 | 263 | 0.0 | 1.7 | 0.03 | 0.02 | 0.02 | 87 | 1022.9 |
| 20260505215244 | 57 | 263 | 0.0 | 2.6 | 0.03 | 0.02 | 0.02 | 86 | 1022.8 |
| 20260505214103 | 57 | 263 | 0.9 | 2.6 | 0.03 | 0.01 | 0.01 | 85 | 1022.7 |
| 20260505212955 | 57 | 263 | 0.0 | 0.9 | 0.00 | 0.00 | 0.00 | 84 | 1022.7 |
| 20260505212450 | 57 | 263 | 0.0 | 0.0 | 0.00 | 0.00 | 0.00 | 84 | 1022.7 |
| 20260505211952 | 57 | 263 | 0.0 | 0.0 | 0.00 | 0.00 | 0.00 | 84 | 1022.7 |
| 20260505211446 | 57 | 263 | 0.0 | 2.6 | 0.00 | 0.00 | 0.00 | 84 | 1022.7 |
| 20260505210941 | 57 | 263 | 0.0 | 2.6 | 0.00 | 0.00 | 0.00 | 84 | 1022.6 |
| 20260505210431 | 57 | 263 | 0.0 | 2.6 | 0.00 | 0.00 | 0.00 | 84 | 1022.6 |
| 20260505205315 | 57 | 263 | 0.0 | 1.7 | 0.00 | 0.00 | 0.00 | 84 | 1022.5 |
| 20260505204817 | 57 | 263 | 0.0 | 2.6 | 0.00 | 0.00 | 0.00 | 84 | 1022.5 |
| 20260505203648 | 57 | 263 | 0.9 | 2.6 | 0.00 | 0.00 | 0.00 | 83 | 1022.5 |
| 20260505203146 | 57 | 263 | 0.0 | 2.6 | 0.00 | 0.00 | 0.00 | 84 | 1022.5 |
| 20260505202033 | 57 | 263 | 0.0 | 1.7 | 0.00 | 0.00 | 0.00 | 83 | 1022.5 |
| 20260505201526 | 57 | 263 | 0.0 | 1.7 | 0.00 | 0.00 | 0.00 | 83 | 1022.5 |
| 20260505201013 | 57 | 263 | 0.0 | 0.0 | 0.00 | 0.00 | 0.00 | 83 | 1022.5 |
| 20260505200512 | 57 | 263 | 0.0 | 2.6 | 0.00 | 0.00 | 0.00 | 83 | 1022.5 |
| 20260505200016 | 57 | 263 | 0.0 | 2.6 | 0.00 | 0.00 | 0.00 | 83 | 1022.5 |
| 20260505195515 | 57 | 263 | 0.0 | 2.6 | 0.00 | 0.00 | 0.00 | 83 | 1022.4 |
| 20260505194406 | 58 | 263 | 0.0 | 1.7 | 0.00 | 0.01 | 0.00 | 83 | 1022.4 |
| 20260505193854 | 58 | 263 | 0.0 | 2.6 | 0.00 | 0.01 | 0.00 | 83 | 1022.4 |
| 20260505193335 | 58 | 263 | 0.9 | 2.6 | 0.00 | 0.01 | 0.00 | 83 | 1022.4 |
| 20260505192818 | 58 | 263 | 0.9 | 2.6 | 0.00 | 0.01 | 0.00 | 83 | 1022.4 |
| 20260505191006 | 58 | 263 | 0.0 | 2.6 | 0.00 | 0.01 | 0.00 | 83 | 1022.4 |
| 20260505190500 | 58 | 263 | 0.9 | 2.6 | 0.00 | 0.01 | 0.00 | 83 | 1022.4 |
| 20260505190003 | 57 | 263 | 0.9 | 2.6 | 0.00 | 0.01 | 0.00 | 83 | 1022.4 |
| 20260505185444 | 57 | 263 | 0.9 | 2.6 | 0.00 | 0.01 | 0.00 | 83 | 1022.5 |
| 20260505184951 | 57 | 263 | 0.0 | 2.6 | 0.00 | 0.01 | 0.00 | 83 | 1022.5 |
| 20260505184442 | 57 | 263 | 0.0 | 1.7 | 0.00 | 0.01 | 0.00 | 83 | 1022.5 |
| 20260505183315 | 57 | 263 | 0.0 | 1.7 | 0.00 | 0.01 | 0.00 | 83 | 1022.5 |
| 20260505181520 | 57 | 263 | 0.0 | 1.7 | 0.00 | 0.01 | 0.00 | 84 | 1022.4 |
| 20260505181027 | 57 | 263 | 0.0 | 1.7 | 0.00 | 0.01 | 0.00 | 84 | 1022.5 |
| 20260505180527 | 57 | 263 | 0.9 | 1.7 | 0.00 | 0.01 | 0.00 | 84 | 1022.5 |
| 20260505180016 | 57 | 263 | 0.0 | 1.7 | 0.00 | 0.01 | 0.00 | 84 | 1022.5 |
| 20260505175523 | 57 | 263 | 0.0 | 1.7 | 0.00 | 0.01 | 0.00 | 84 | 1022.6 |
| 20260505174404 | 57 | 263 | 0.0 | 1.7 | 0.00 | 0.05 | 0.00 | 84 | 1022.7 |
| 20260505173244 | 57 | 263 | 0.0 | 1.7 | 0.00 | 0.05 | 0.00 | 84 | 1022.7 |
| 20260505172731 | 57 | 263 | 0.0 | 1.7 | 0.00 | 0.05 | 0.00 | 84 | 1022.7 |
| 20260505172240 | 57 | 263 | 0.0 | 3.5 | 0.00 | 0.05 | 0.00 | 84 | 1022.7 |
| 20260505171727 | 57 | 263 | 0.0 | 3.5 | 0.00 | 0.05 | 0.00 | 84 | 1022.7 |
| 20260505171209 | 57 | 263 | 0.0 | 3.5 | 0.00 | 0.05 | 0.00 | 84 | 1022.8 |
| 20260505170650 | 57 | 263 | 0.0 | 3.5 | 0.00 | 0.05 | 0.00 | 84 | 1022.8 |
| 20260505165515 | 57 | 263 | 0.0 | 0.9 | 0.00 | 0.05 | 0.00 | 84 | 1022.8 |
| 20260505164322 | 57 | 263 | 0.0 | 1.7 | 0.00 | 0.05 | 0.00 | 84 | 1023.1 |
| 20260505163822 | 57 | 263 | 0.0 | 1.7 | 0.00 | 0.05 | 0.00 | 84 | 1023.1 |
| 20260505163317 | 57 | 263 | 0.0 | 0.0 | 0.00 | 0.05 | 0.00 | 84 | 1023.1 |
| 20260505162811 | 57 | 263 | 0.0 | 0.9 | 0.00 | 0.05 | 0.00 | 84 | 1023.2 |
| 20260505162307 | 57 | 263 | 0.0 | 0.9 | 0.00 | 0.05 | 0.00 | 84 | 1023.2 |
| 20260505161753 | 57 | 263 | 0.0 | 0.9 | 0.00 | 0.05 | 0.00 | 84 | 1023.2 |
| 20260505161245 | 57 | 263 | 0.0 | 0.9 | 0.00 | 0.05 | 0.00 | 84 | 1023.3 |
| 20260505160123 | 58 | 263 | 0.0 | 0.0 | 0.00 | 0.08 | 0.00 | 84 | 1023.3 |
| 20260505153223 | 58 | 263 | 0.0 | 0.9 | 0.00 | 0.08 | 0.00 | 84 | 1023.4 |
| 20260505152732 | 58 | 263 | 0.0 | 0.0 | 0.00 | 0.08 | 0.00 | 84 | 1023.5 |
| 20260505152216 | 58 | 263 | 0.0 | 1.7 | 0.00 | 0.09 | 0.00 | 84 | 1023.5 |
| 20260505151702 | 57 | 263 | 0.0 | 1.7 | 0.00 | 0.10 | 0.00 | 84 | 1023.5 |
| 20260505151149 | 58 | 263 | 0.0 | 0.9 | 0.00 | 0.10 | 0.00 | 84 | 1023.7 |
| 20260505150643 | 57 | 263 | 0.0 | 1.7 | 0.00 | 0.10 | 0.00 | 83 | 1023.7 |
| 20260505150134 | 58 | 263 | 0.0 | 1.7 | 0.00 | 0.10 | 0.00 | 84 | 1023.7 |
| 20260505140555 | 58 | 263 | 0.0 | 0.0 | 0.00 | 0.11 | 0.11 | 83 | 1023.8 |
| 20260505125033 | 58 | 263 | 0.0 | 0.0 | 0.00 | 0.11 | 0.11 | 81 | 1024.3 |
| 20260505124537 | 58 | 263 | 0.0 | 0.0 | 0.00 | 0.11 | 0.11 | 81 | 1024.3 |
| 20260505124044 | 58 | 263 | 0.0 | 0.0 | 0.00 | 0.11 | 0.11 | 81 | 1024.3 |
| 20260505123527 | 58 | 263 | 0.0 | 0.0 | 0.00 | 0.11 | 0.11 | 81 | 1024.3 |
| 20260505122420 | 58 | 263 | 0.0 | 0.0 | 0.00 | 0.11 | 0.11 | 80 | 1024.3 |
| 20260505121922 | 58 | 263 | 0.0 | 0.0 | 0.00 | 0.11 | 0.11 | 80 | 1024.3 |
| 20260505121420 | 58 | 263 | 0.0 | 0.0 | 0.00 | 0.11 | 0.11 | 80 | 1024.3 |
| 20260505120919 | 58 | 263 | 0.0 | 0.0 | 0.00 | 0.11 | 0.11 | 80 | 1024.3 |
| 20260505115748 | 58 | 263 | 0.0 | 0.0 | 0.00 | 0.11 | 0.11 | 80 | 1024.3 |
| 20260505115243 | 58 | 263 | 0.0 | 0.0 | 0.00 | 0.11 | 0.11 | 80 | 1024.3 |
| 20260505114740 | 58 | 263 | 0.0 | 0.0 | 0.00 | 0.11 | 0.11 | 80 | 1024.3 |
| 20260505113605 | 58 | 263 | 0.0 | 0.0 | 0.00 | 0.11 | 0.11 | 80 | 1024.3 |
| 20260505112441 | 58 | 263 | 0.0 | 0.0 | 0.00 | 0.11 | 0.11 | 79 | 1024.4 |
| 20260505111926 | 58 | 263 | 0.0 | 0.0 | 0.00 | 0.11 | 0.11 | 79 | 1024.4 |
| 20260505110801 | 58 | 263 | 0.0 | 0.0 | 0.00 | 0.11 | 0.11 | 79 | 1024.4 |
| 20260505110248 | 58 | 263 | 0.0 | 0.0 | 0.00 | 0.11 | 0.11 | 79 | 1024.4 |
| 20260505102213 | 58 | 263 | 0.0 | 0.0 | 0.00 | 0.13 | 0.11 | 79 | 1024.4 |
| 20260505101658 | 58 | 263 | 0.0 | 0.0 | 0.00 | 0.13 | 0.11 | 78 | 1024.4 |
| 20260505101138 | 58 | 263 | 0.0 | 0.0 | 0.00 | 0.13 | 0.11 | 78 | 1024.4 |
| 20260505100624 | 58 | 263 | 0.0 | 0.0 | 0.00 | 0.13 | 0.11 | 78 | 1024.4 |
| 20260505100121 | 58 | 263 | 0.0 | 0.0 | 0.00 | 0.13 | 0.11 | 78 | 1024.4 |
| 20260505095604 | 58 | 263 | 0.0 | 0.0 | 0.00 | 0.13 | 0.11 | 78 | 1024.4 |
| 20260505095055 | 58 | 263 | 0.0 | 0.0 | 0.00 | 0.13 | 0.11 | 78 | 1024.4 |
| 20260505094549 | 59 | 263 | 0.0 | 0.0 | 0.00 | 0.13 | 0.11 | 77 | 1024.4 |
| 20260505094053 | 59 | 263 | 0.0 | 0.0 | 0.00 | 0.13 | 0.11 | 77 | 1024.3 |
| 20260505093555 | 59 | 263 | 0.0 | 0.0 | 0.00 | 0.13 | 0.11 | 77 | 1024.3 |
| 20260505092433 | 59 | 263 | 0.0 | 0.0 | 0.00 | 0.13 | 0.11 | 74 | 1024.2 |
| 20260505091915 | 59 | 263 | 0.0 | 0.0 | 0.00 | 0.13 | 0.11 | 74 | 1024.2 |
| 20260505091413 | 59 | 263 | 0.0 | 1.7 | 0.00 | 0.13 | 0.11 | 74 | 1024.2 |
| 20260505090903 | 59 | 263 | 0.0 | 0.0 | 0.00 | 0.13 | 0.11 | 74 | 1024.0 |
| 20260505085140 | 59 | 263 | 0.0 | 0.0 | 0.00 | 0.13 | 0.11 | 72 | 1023.8 |
| 20260505084632 | 59 | 263 | 0.0 | 0.0 | 0.00 | 0.13 | 0.11 | 72 | 1023.8 |
| 20260505084136 | 59 | 263 | 0.0 | 0.0 | 0.00 | 0.13 | 0.11 | 71 | 1023.7 |
| 20260505083644 | 59 | 263 | 0.0 | 0.0 | 0.00 | 0.13 | 0.11 | 70 | 1023.7 |
| 20260505083131 | 60 | 263 | 0.0 | 0.0 | 0.00 | 0.13 | 0.11 | 70 | 1023.7 |
| 20260505082618 | 60 | 263 | 0.0 | 0.0 | 0.00 | 0.13 | 0.11 | 70 | 1023.5 |
| 20260505081514 | 60 | 263 | 0.0 | 0.0 | 0.00 | 0.13 | 0.11 | 69 | 1023.5 |
| 20260505081021 | 60 | 263 | 0.0 | 1.7 | 0.00 | 0.13 | 0.11 | 69 | 1023.4 |
| 20260505075904 | 61 | 263 | 0.9 | 1.7 | 0.00 | 0.13 | 0.11 | 68 | 1023.3 |
| 20260505075408 | 61 | 263 | 0.9 | 1.7 | 0.00 | 0.13 | 0.11 | 68 | 1023.3 |
| 20260505074855 | 62 | 263 | 0.9 | 1.7 | 0.00 | 0.13 | 0.11 | 67 | 1023.3 |
| 20260505073742 | 62 | 263 | 0.9 | 3.5 | 0.00 | 0.13 | 0.11 | 66 | 1023.3 |
| 20260505073251 | 62 | 263 | 0.9 | 3.5 | 0.00 | 0.13 | 0.11 | 66 | 1023.3 |
| 20260505072759 | 62 | 263 | 1.7 | 3.5 | 0.00 | 0.13 | 0.11 | 66 | 1023.2 |
| 20260505072258 | 62 | 263 | 0.9 | 4.3 | 0.00 | 0.13 | 0.11 | 66 | 1023.2 |
| 20260505071805 | 63 | 263 | 0.9 | 4.3 | 0.00 | 0.13 | 0.11 | 66 | 1023.2 |
| 20260505071307 | 63 | 263 | 0.9 | 4.3 | 0.00 | 0.13 | 0.11 | 65 | 1023.2 |
| 20260505070756 | 63 | 263 | 1.7 | 4.3 | 0.00 | 0.13 | 0.11 | 65 | 1023.2 |
| 20260505070238 | 63 | 263 | 1.7 | 6.1 | 0.00 | 0.13 | 0.11 | 64 | 1023.2 |
| 20260505065725 | 63 | 263 | 1.7 | 6.1 | 0.00 | 0.13 | 0.11 | 64 | 1023.3 |
| 20260505065219 | 63 | 263 | 1.7 | 7.8 | 0.00 | 0.13 | 0.11 | 63 | 1023.3 |
| 20260505064723 | 63 | 263 | 2.6 | 7.8 | 0.00 | 0.13 | 0.11 | 62 | 1023.3 |
| 20260505063620 | 63 | 263 | 3.5 | 7.8 | 0.00 | 0.13 | 0.11 | 60 | 1023.2 |
| 20260505063122 | 63 | 263 | 2.6 | 7.8 | 0.00 | 0.13 | 0.11 | 61 | 1023.2 |
| 20260505062630 | 63 | 263 | 2.6 | 7.8 | 0.00 | 0.13 | 0.11 | 61 | 1023.2 |
| 20260505062124 | 63 | 263 | 2.6 | 7.8 | 0.00 | 0.13 | 0.11 | 61 | 1023.2 |
| 20260505061606 | 63 | 263 | 1.7 | 7.0 | 0.00 | 0.13 | 0.11 | 61 | 1023.2 |
| 20260505061056 | 63 | 263 | 1.7 | 7.0 | 0.00 | 0.13 | 0.11 | 61 | 1023.2 |
| 20260505060540 | 63 | 263 | 1.7 | 7.0 | 0.00 | 0.13 | 0.11 | 62 | 1023.2 |
| 20260505055407 | 63 | 263 | 2.6 | 7.0 | 0.00 | 0.13 | 0.11 | 59 | 1023.1 |
| 20260505054853 | 63 | 263 | 1.7 | 7.0 | 0.00 | 0.13 | 0.11 | 60 | 1023.1 |
| 20260505054402 | 63 | 263 | 2.6 | 7.8 | 0.00 | 0.13 | 0.11 | 62 | 1022.9 |
| 20260505053853 | 63 | 263 | 2.6 | 7.8 | 0.00 | 0.13 | 0.11 | 63 | 1022.9 |
| 20260505053342 | 62 | 263 | 1.7 | 8.7 | 0.00 | 0.13 | 0.11 | 64 | 1022.9 |
| 20260505052828 | 62 | 263 | 1.7 | 8.7 | 0.00 | 0.13 | 0.11 | 63 | 1022.8 |
| 20260505052311 | 62 | 263 | 2.6 | 8.7 | 0.00 | 0.13 | 0.11 | 63 | 1022.8 |
| 20260505051806 | 62 | 263 | 3.5 | 8.7 | 0.00 | 0.13 | 0.11 | 63 | 1022.8 |
| 20260505051314 | 62 | 263 | 2.6 | 7.8 | 0.00 | 0.13 | 0.11 | 63 | 1022.8 |
| 20260505050813 | 62 | 263 | 2.6 | 7.8 | 0.00 | 0.13 | 0.11 | 64 | 1022.8 |
| 20260505041339 | 63 | 263 | 4.3 | 9.6 | 0.00 | 0.13 | 0.11 | 59 | 1022.9 |
| 20260505040834 | 64 | 263 | 3.5 | 9.6 | 0.00 | 0.13 | 0.11 | 60 | 1022.9 |
| 20260505040321 | 63 | 263 | 1.7 | 8.7 | 0.00 | 0.13 | 0.11 | 61 | 1022.9 |
| 20260505035804 | 62 | 263 | 1.7 | 6.1 | 0.00 | 0.13 | 0.11 | 62 | 1023.1 |
| 20260505034628 | 62 | 263 | 1.7 | 5.2 | 0.00 | 0.13 | 0.11 | 64 | 1023.1 |
| 20260505033528 | 62 | 263 | 0.9 | 5.2 | 0.00 | 0.13 | 0.11 | 66 | 1023.2 |
| 20260505033016 | 62 | 263 | 0.9 | 5.2 | 0.00 | 0.13 | 0.11 | 67 | 1023.2 |
| 20260505032503 | 62 | 263 | 0.9 | 5.2 | 0.00 | 0.13 | 0.11 | 69 | 1023.3 |
| 20260505031949 | 61 | 263 | 0.0 | 3.5 | 0.00 | 0.13 | 0.11 | 69 | 1023.3 |
| 20260505031443 | 61 | 263 | 0.9 | 0.9 | 0.00 | 0.13 | 0.11 | 69 | 1023.3 |
| 20260505030927 | 61 | 263 | 1.7 | 5.2 | 0.00 | 0.13 | 0.11 | 69 | 1023.6 |
| 20260505030408 | 61 | 263 | 1.7 | 5.2 | 0.00 | 0.13 | 0.11 | 70 | 1023.6 |
| 20260505023929 | 61 | 263 | 2.6 | 5.2 | 0.00 | 0.13 | 0.11 | 71 | 1023.9 |
| 20260505023411 | 61 | 263 | 2.6 | 5.2 | 0.00 | 0.13 | 0.11 | 71 | 1023.9 |
| 20260505022910 | 61 | 263 | 1.7 | 5.2 | 0.00 | 0.13 | 0.11 | 71 | 1023.9 |
| 20260505022416 | 61 | 263 | 0.9 | 5.2 | 0.00 | 0.13 | 0.11 | 71 | 1023.8 |
| 20260505021920 | 61 | 263 | 1.7 | 5.2 | 0.00 | 0.13 | 0.11 | 69 | 1023.8 |
| 20260505021415 | 61 | 263 | 1.7 | 5.2 | 0.00 | 0.13 | 0.11 | 69 | 1023.8 |
| 20260505020904 | 61 | 263 | 1.7 | 5.2 | 0.00 | 0.13 | 0.11 | 68 | 1023.8 |